Regional Weather Roundup
Issued by NWS

Home | Current Version | Previous Version | Graphics & Text | Print | Product List | Glossary On
Versions: 1 2 3 4 5 6 7 8 9 10 11 12 13 14 15 16 17 18 19 20 21 22 23 24 25 26 27 28 29 30 31 32 33 34 35 36 37 38 39 40 41 42 43 44 45 46 47 48 49 50
000
ASUS45 KABQ 291810
RWRNM
WEATHER ROUNDUP FOR NEW MEXICO
NATIONAL WEATHER SERVICE ALBUQUERQUE NM
1200 PM MDT TUE JUL 29 2014

NOTE: "FAIR" MEANS FEW OR NO CLOUDS BELOW 12,000 FEET AGL WITH NO
       SIGNIFICANT WEATHER OR OBSTRUCTIONS TO VISION.

      THIS PRODUCT IS RELEASED AS TWO VERSIONS.  ONE VERSION NEAR
      THE TOP OF THE HOUR CONTAINING PRELIMINARY DATA FROM ALBUQUERQUE
      AND OTHER STATIONS.  A FINAL VERSION WITH ADDITIONAL DATA IS
      ISSUED ABOUT 10 MINUTES AFTER THE HOUR.

NMZ501-503-504-510>518-291900-
NORTHWEST PLATEAU/NORTHCENTRAL MOUNTAINS

CITY           SKY/WX    TMP DP  RH WIND       PRES   REMARKS
FARMINGTON     MOSUNNY   77  57  50 NW5       30.28F
6HR MIN TEMP:  63; 6HR MAX TEMP:  78;

LOS ALAMOS     RAIN      66  58  76 S6        30.40F
SANTA FE       PTSUNNY   71  58  63 SW9       30.34F
6HR MIN TEMP:  61; 6HR MAX TEMP:  71;

TAOS           PTSUNNY   70  52  52 SW6       30.39F
ANGEL FIRE     FAIR      68  53  59 SW15      30.45F

$$
NMZ402-403-502-505>509-291900-
WESTCENTRAL MOUNTAINS/SOUTHWEST MOUNTAINS

CITY           SKY/WX    TMP DP  RH WIND       PRES   REMARKS
GALLUP         SUNNY     75  55  49 CALM      30.36F
6HR MIN TEMP:  57; 6HR MAX TEMP:  77;

SILVER CITY    MOSUNNY   81  54  39 SW8       30.32F

$$
NMZ407-409-411-412-291900-
SOUTHERN DESERTS

CITY           SKY/WX    TMP DP  RH WIND       PRES   REMARKS
LORDSBURG      FAIR      86  55  35 CALM      30.21F
DEMING         SUNNY     85  58  39 MISG      30.23F
6HR MIN TEMP:  71; 6HR MAX TEMP:  85;

LAS CRUCES     PTSUNNY   81  60  48 S10       30.27S
HOLLOMAN AFB   MOSUNNY   77  63  61 S8        30.24S
ALAMOGORDO     MOSUNNY   77  59  53 S5        30.26S
T OR C         MOSUNNY  N/A N/A N/A VRB3      30.24F
6HR MIN TEMP:  67; 6HR MAX TEMP:  81;


$$
NMZ519>523-291900-
CENTRAL VALLEYS/CENTRAL HIGHLANDS

CITY           SKY/WX    TMP DP  RH WIND       PRES   REMARKS
ALBUQUERQUE    MOSUNNY   75  60  59 S7        30.30F
6HR MIN TEMP:  66; 6HR MAX TEMP:  76;

DOUBLE EAGLE   PTSUNNY   75  61  60 S6        30.33F
MORIARTY ARPT  CLOUDY    72  59  63 S5        30.35F
6HR MIN TEMP:  60; 6HR MAX TEMP:  73;

CLINES CORNERS MOSUNNY   69  59  70 S10       30.38F
6HR MIN TEMP:  58; 6HR MAX TEMP:  69; 6HR PCP:  0.01;

BELEN          FAIR      78  58  50 SW7       30.27F
6HR MIN TEMP:  64; 6HR MAX TEMP:  79;

SOCORRO        FAIR      82  60  47 SE10G17   30.26F
6HR MIN TEMP:  66; 6HR MAX TEMP:  82;


$$
NMZ524>526-539-540-291900-
SOUTHCENTRAL MOUNTAINS

CITY           SKY/WX    TMP DP  RH WIND       PRES   REMARKS
RUIDOSO        PTSUNNY   64  59  82 SE9       30.43F

$$
NMZ527>531-291900-
NORTHEAST HIGHLANDS/NORTHEAST PLAINS

CITY           SKY/WX    TMP DP  RH WIND       PRES   REMARKS
LAS VEGAS      PTSUNNY   68  59  73 S16       30.37F
6HR MIN TEMP:  58; 6HR MAX TEMP:  68; 6HR PCP: TRACE;

RATON          MOSUNNY   71  59  65 VRB6      30.31F
6HR MIN TEMP:  59; 6HR MAX TEMP:  71;

CLAYTON        MOSUNNY   77  61  57 SW16      30.25F
6HR MIN TEMP:  65; 6HR MAX TEMP:  77; 6HR PCP: TRACE;


$$
NMZ532>537-291900-
EASTCENTRAL PLAINS

CITY           SKY/WX    TMP DP  RH WIND       PRES   REMARKS
TUCUMCARI      CLOUDY    75  65  70 SW17      30.23F
6HR MIN TEMP:  65; 6HR MAX TEMP:  75; 6HR PCP:  0.33;

CANNON AFB     LGT RAIN  65  64  99 SW10        N/A
6HR MIN TEMP:  63; 6HR MAX TEMP:  66; 6HR PCP:  0.86;

CLOVIS AIRPORT NOT AVBL

$$
NMZ028-029-538-291900-
SOUTHEAST PLAINS

CITY           SKY/WX    TMP DP  RH WIND       PRES   REMARKS
ROSWELL        LGT RAIN  69  66  90 SE10      30.24F
6HR MIN TEMP:  67; 6HR MAX TEMP:  71; 6HR PCP:  0.53;

ARTESIA        LGT RAIN  73  66  78 NE14      30.25F
CARLSBAD       PTSUNNY   86  61  42 N17G30    30.20F
6HR MIN TEMP:  73; 6HR MAX TEMP:  86;

HOBBS          PTSUNNY   77  59  53 N9        30.27S


$$



USA.gov is the U.S. government's official web portal to all federal, state and local government web resources and services.